User: anonymous   Login
Location: Charleston
(38.3500°N, 81.6330°W)
Time: 15:13:09
(UTC-04:00)
Language:

Cosmos 2228 - Orbit

View from above orbital plane
View from above orbital plane
View from above satellite
View from above satellite

Ground track
Ground track

The orbit data is extracted from the following two-line orbital elements,

1 22286U 92094A   15144.10559145  .00000749  00000-0  80717-4 0  9996
2 22286 082.5219 005.6957 0022389 105.8645 254.5042 14.86937499210256
Epoch (UTC): 24 May 2015 02:32:03
Eccentricity: 0.0022389
inclination: 82.5219°
perigee height: 592 km
apogee height: 623 km
right ascension of ascending node: 5.6957°
argument of perigee: 105.8645°
revolutions per day: 14.86937499
mean anomaly at epoch: 254.5042°
orbit number at epoch: 21025

The dashed part of the orbit path shows where the satellite is in the earth's shadow,  

DLR